Newport, AR

11:01 AM CDT on September 20, 2017 (GMT -0500)
Newport

Weather History for KM19 - March, 2013

Change the Weather History Date:

Friday, March 22, 2013

  Actual Average (KBVX) Record (KBVX)
Temperature  
Mean Temperature 36 °F -  
Max Temperature 39 °F 64 °F 79 °F (1966)
Min Temperature 32 °F 38 °F 20 °F (1964)
Degree Days  
Heating Degree Days 30    
Moisture  
Dew Point 36 °F    
Average Humidity 98    
Maximum Humidity 100    
Minimum Humidity 93    
Precipitation  
Precipitation 0.49 in - - ()
Sea Level Pressure  
Sea Level Pressure 29.96 in    
Wind  
Wind Speed 10 mph (NE)    
Max Wind Speed 15 mph    
Max Gust Speed -    
Visibility 7 miles    
Events Rain , Snow    
Averages and records for this station are not official NWS values.
T = Trace of Precipitation, MM = Missing Value Source: NWS Daily Summary

Daily Weather History Graph

Daily Weather History Graph

Search for Another Location

Airport or City:

Trip Planner

Search our weather history database for the weather conditions in past years. The results will help you decide how hot, cold, wet, or windy it might be!

Date:

Astronomy

Mar. 22, 2013 Rise Set
Actual Time 7:05 AM CDT 7:18 PM CDT
Civil Twilight 6:39 AM CDT 7:43 PM CDT
Nautical Twilight 6:09 AM CDT 8:13 PM CDT
Astronomical Twilight 5:39 AM CDT 8:43 PM CDT
Moon 2:53 PM CDT (3/22) 3:57 AM CDT (3/22)
Length of Visible Light 13h 04m
Length of Day
12h 13m
Waxing Gibbous, 77% of the Moon is Illuminated
Mar 22
Waxing Gibbous
Mar 27
Full
Apr 2
Last Quarter
Apr 10
New
Apr 18
First Quarter

Hourly Weather History & Observations

Time (CDT) Temp. Windchill Dew Point Humidity Pressure Visibility Wind Dir Wind Speed Gust Speed Precip Events Conditions
12:56 AM 32.0 °F 23.6 °F 32.0 °F 100% 29.97 in 6.0 mi ENE 10.4 mph - 0.14 in   Mostly Cloudy
1:05 AM 32.0 °F 24.2 °F 32.0 °F 100% 29.97 in 5.0 mi ENE 9.2 mph - 0.02 in Snow Light Snow
1:39 AM 32.0 °F 23.0 °F 32.0 °F 100% 29.96 in 4.0 mi ENE 11.5 mph - 0.17 in Snow Light Snow
1:56 AM 32.0 °F 25.6 °F 32.0 °F 100% 29.97 in 5.0 mi East 6.9 mph - 0.20 in Snow Light Snow
2:56 AM 32.9 °F 27.5 °F 32.9 °F 100% 29.97 in 4.0 mi East 5.8 mph - 0.07 in Rain Light Rain
3:56 AM 32.9 °F 25.3 °F 32.9 °F 100% 29.93 in 7.0 mi East 9.2 mph - 0.02 in Rain Light Rain
4:56 AM 32.9 °F 25.3 °F 32.9 °F 100% 29.95 in 8.0 mi NE 9.2 mph - 0.00 in Rain Light Rain
5:56 AM 32.0 °F 24.2 °F 32.0 °F 100% 29.96 in 6.0 mi NE 9.2 mph - 0.04 in   Overcast
6:56 AM 32.9 °F 26.7 °F 32.9 °F 100% 29.97 in 7.0 mi ENE 6.9 mph - 0.02 in Rain Light Rain
7:56 AM 32.9 °F 24.7 °F 32.9 °F 100% 29.98 in 5.0 mi ENE 10.4 mph - 0.00 in Rain Light Rain
8:56 AM 34.0 °F - 34.0 °F 100% 29.99 in 6.0 mi North - - 0.00 in   Overcast
9:56 AM 34.9 °F 26.6 °F 34.9 °F 100% 29.99 in 4.0 mi ENE 11.5 mph - 0.00 in Rain Light Rain
10:56 AM 36.0 °F 27.1 °F 36.0 °F 100% 29.99 in 2.5 mi ENE 13.8 mph - 0.00 in   Overcast
11:08 AM 35.6 °F 26.2 °F 35.6 °F 100% 29.98 in 4.0 mi ENE 15.0 mph - N/A   Overcast
11:56 AM 36.9 °F 28.7 °F 36.9 °F 100% 29.99 in 8.0 mi ENE 12.7 mph - N/A   Overcast
12:56 PM 37.9 °F - 37.9 °F 100% 29.97 in 5.0 mi North - - N/A   Overcast
1:56 PM 38.8 °F 31.2 °F 37.9 °F 97% 29.95 in 10.0 mi NNE 12.7 mph - N/A   Overcast
2:16 PM 39.2 °F 31.6 °F 37.4 °F 93% 29.94 in 10.0 mi NE 12.7 mph - N/A   Overcast
2:35 PM 39.2 °F 31.6 °F 37.4 °F 93% 29.93 in 8.0 mi NE 12.7 mph - N/A   Overcast
2:56 PM 38.8 °F 31.2 °F 38.8 °F 100% 29.92 in 6.0 mi NE 12.7 mph - N/A   Overcast
3:56 PM 39.9 °F 32.9 °F 38.8 °F 96% 29.93 in 8.0 mi NE 11.5 mph - N/A   Overcast
4:23 PM 39.2 °F 31.6 °F 39.2 °F 100% 29.93 in 8.0 mi NNE 12.7 mph - N/A   Overcast
4:56 PM 38.8 °F 32.1 °F 36.9 °F 93% 29.94 in 10.0 mi NNE 10.4 mph - N/A   Overcast
5:56 PM 38.8 °F - 36.9 °F 93% 29.94 in 10.0 mi North - - N/A   Overcast
6:56 PM 38.8 °F 31.6 °F 37.9 °F 97% 29.96 in 5.0 mi NNE 11.5 mph - N/A   Overcast
7:56 PM 38.8 °F 31.2 °F 37.9 °F 97% 29.96 in 6.0 mi NNE 12.7 mph - N/A   Overcast
8:56 PM 39.9 °F 33.4 °F 37.9 °F 93% 29.95 in 10.0 mi NNE 10.4 mph - N/A   Overcast
9:56 PM 39.9 °F 33.9 °F 37.9 °F 93% 29.97 in 9.0 mi NNE 9.2 mph - N/A   Overcast
11:56 PM 39.9 °F 32.5 °F 37.9 °F 93% 29.97 in 9.0 mi NNE 12.7 mph - N/A   Overcast